Regional Weather Roundup
Issued by NWS State College, PA

Home | Current Version | Previous Version | Graphics & Text | Print | Product List | Glossary On
Versions: 1 2 3 4 5 6 7 8 9 10 11 12 13 14 15 16 17 18 19 20 21 22 23 24 25 26 27 28 29 30 31 32 33 34 35 36 37 38 39 40 41 42 43 44 45 46 47 48 49 50
000
ASUS41 KCTP 240410
RWRCTP

REGIONAL WEATHER ROUNDUP
NATIONAL WEATHER SERVICE STATE COLLEGE PA
1200 AM EDT SAT JUN 24 2017

Note: "fair" indicates few or no clouds below 12,000 feet with no
significant weather and/or obstructions to visibility.

* = STATION THAT DOES NOT REPORT PRECIPITATION /E.G. RAIN...SNOW...ETC/
    THUNDER OR FOG.

PAZ002>004-007>009-013>016-020>023-029>032-240500-
WESTERN PENNSYLVANIA

CITY           SKY/WX    TMP DP  RH WIND       PRES   REMARKS
ERIE           LGT RAIN  70  67  90 W8        29.66S
MEADVILLE      HVY RAIN  68  68 100 W8        29.71R FOG
FRANKLIN*      CLOUDY    66  63  88 W7        29.71S
NEW CASTLE     FAIR      68  67  96 SW6       29.72R
BEAVER COUNTY  NOT AVBL
BUTLER*        CLOUDY    66  64  94 S6        29.73R
PITTSBURGH INT LGT RAIN  68  68 100 SW6       29.74R
PITTSBURGH     LGT RAIN  68  65  90 W9        29.74R
INDIANA*       CLOUDY    68  68 100 SW7       29.76R FOG
LATROBE        LGT RAIN  68  68 100 S7        29.75R
WASHINGTON CO* CLOUDY    66  64  94 SW5       29.78R
$$

PAZ004>006-010>012-017>019-024>028-033>037-041-042-045-046-049>053-240500-
CENTRAL PENNSYLVANIA

CITY           SKY/WX    TMP DP  RH WIND       PRES   REMARKS
BRADFORD       LGT RAIN  67  66  97 SW6       29.70S
DUBOIS         CLOUDY    67  64  90 SW6       29.71S
CLEARFIELD     LGT RAIN  68  68 100 SW5       29.71S
JOHNSTOWN      LGT RAIN  65  64  97 SW7       29.76S
ALTOONA        LGT RAIN  68  68 100 S7        29.73F
STATE COLLEGE  CLOUDY    68  67  97 SW3       29.69S
WILLIAMSPORT   CLOUDY    73  70  90 SW3       29.62F
SELINSGROVE    LGT RAIN  73  72  96 SW3       29.67F
FT INDIANTOWN  LGT RAIN  72  72 100 W7        29.68R FOG
CAPITAL CITY   CLOUDY    73  70  90 W6        29.69R FOG
HARRISBURG     LGT RAIN  74  71  91 CALM      29.67F
YORK           LGT RAIN  72  72 100 NW6       29.68F FOG
$$

PAZ038>040-043-044-047-048-054-055-060>062-067>071-240500-
EASTERN PENNSYLVANIA

CITY           SKY/WX    TMP DP  RH WIND       PRES   REMARKS
SCRANTON       MOCLDY    73  71  93 SW8       29.64F
MOUNT POCONO   CLOUDY    69  69 100 W12       29.69F
ALLENTOWN      LGT RAIN  75  71  87 SW7       29.66S
QUAKERTOWN*    MOCLDY    73  72  94 SW7       29.69R
READING        CLOUDY    72  72 100 SE3       29.67F
LANCASTER      HVY RAIN  72  72 100 W5        29.68F FOG
COATESVILLE    CLOUDY    73  72  94 W9G15     29.71R
POTTSTOWN      NOT AVBL
BLUE BELL      MOCLDY    79  72  78 SW5       29.67F
DOYLESTOWN     PTCLDY    75  74  96 SW3       29.66S
WILLOW GROVE   NOT AVBL
NORTH PHILA    CLEAR     84  73  69 SW9       29.67S
PHILADELPHIA   PTCLDY    83  72  69 SW15      29.66F
$$




USA.gov is the U.S. government's official web portal to all federal, state and local government web resources and services.